This is the latest recevied weather packets stored in our database for station/object N3TJJ-2. If no packets are shown the sender has not sent any weather packets the latest 1 day(s).
| Time | Temp. | Humidity | Pressure | Rain* | Wind** | Luminosity | Snow |
|---|---|---|---|---|---|---|---|
| 1778018721 | 26.11° C | 44% | 1009.1 hPa | 0 mm | 5.81 m/s, 48° | - | - |
| 1778018356 | 26.11° C | 43% | 1009 hPa | 0 mm | 7.15 m/s, 53° | - | - |
| 1778017999 | 26.11° C | 43% | 1009 hPa | 0 mm | 6.26 m/s, 38° | - | - |
| 1778017635 | 26.11° C | 43% | 1009 hPa | 0 mm | 7.15 m/s, 46° | - | - |
| 1778017293 | 26.67° C | 43% | 1008.9 hPa | 0 mm | 6.26 m/s, 36° | - | - |
| 1778016926 | 26.67° C | 42% | 1008.9 hPa | 0 mm | 5.81 m/s, 41° | - | - |
| 1778016563 | 26.67° C | 42% | 1008.8 hPa | 0 mm | 6.71 m/s, 41° | - | - |
| 1778016199 | 26.67° C | 42% | 1008.7 hPa | 0 mm | 6.26 m/s, 35° | - | - |
| 1778015837 | 26.67° C | 42% | 1008.7 hPa | 0 mm | 5.36 m/s, 24° | - | - |
| 1778015475 | 26.67° C | 42% | 1008.7 hPa | 0 mm | 6.71 m/s, 27° | - | - |
| 1778015127 | 27.22° C | 43% | 1008.7 hPa | 0 mm | 5.36 m/s, 36° | - | - |
| 1778014758 | 27.22° C | 43% | 1008.7 hPa | 0 mm | 5.36 m/s, 45° | - | - |
| 1778014395 | 27.22° C | 44% | 1008.7 hPa | 0 mm | 4.92 m/s, 50° | - | - |
| 1778014036 | 27.22° C | 43% | 1008.8 hPa | 0 mm | 5.36 m/s, 48° | - | - |
| 1778013676 | 27.22° C | 42% | 1008.8 hPa | 0 mm | 6.26 m/s, 48° | - | - |
| 1778013319 | 27.22° C | 43% | 1008.9 hPa | 0 mm | 5.36 m/s, 59° | - | - |
| 1778012956 | 27.22° C | 42% | 1008.9 hPa | 0 mm | 6.71 m/s, 34° | - | - |
| 1778012597 | 27.22° C | 43% | 1009 hPa | 0 mm | 5.81 m/s, 51° | - | - |
| 1778012239 | 27.22° C | 43% | 1009 hPa | 0 mm | 5.36 m/s, 42° | - | - |
| 1778011889 | 27.22° C | 43% | 1009 hPa | 0 mm | 5.81 m/s, 41° | - | - |
| 1778011515 | 27.22° C | 43% | 1009.1 hPa | 0 mm | 6.71 m/s, 50° | - | - |
| 1778011162 | 27.78° C | 43% | 1009.2 hPa | 0 mm | 4.92 m/s, 65° | - | - |
| 1778010796 | 27.22° C | 42% | 1009.2 hPa | 0 mm | 5.81 m/s, 42° | - | - |
| 1778010438 | 27.22° C | 41% | 1009.2 hPa | 0 mm | 5.81 m/s, 46° | - | - |
| 1778010082 | 27.22° C | 40% | 1009.2 hPa | 0 mm | 7.6 m/s, 38° | - | - |
* Rain latest hour (hover to see other rain measurements)
** Current wind speed in m/s (hover to see current wind gust speed)